Regional Weather Roundup
Issued by NWS

Home | Current Version | Previous Version | Graphics & Text | Print | Product List | Glossary On
Versions: 1 2 3 4 5 6 7 8 9 10 11 12 13 14 15 16 17 18 19 20 21 22 23 24 25 26 27 28 29 30 31 32 33 34 35 36 37 38 39 40 41 42 43 44 45 46 47 48 49 50
000
ASUS43 KFSD 201910
RWRSD

WEATHER ROUNDUP FOR SOUTH DAKOTA
NATIONAL WEATHER SERVICE SIOUX FALLS SD
200 PM CDT SUN APR 20 2014

NOTE: "FAIR" INDICATES FEW OR NO CLOUDS BELOW 12,000 FEET WITH NO
SIGNIFICANT WEATHER AND/OR OBSTRUCTIONS TO VISIBILITY.


SDZ001>005-009-010-012>017-202000-
NORTHWEST AND NORTH CENTRAL SOUTH DAKOTA

CITY           SKY/WX    TMP DP  RH WIND       PRES   REMARKS
BUFFALO          N/A     62  29  28 NW24      29.90R
FAITH            N/A     70  41  34 S7        29.90S
MOBRIDGE       SUNNY     74  26  16 S20       29.89F
$$

SDZ012>016-024>037-041>051-057-063-072>074-202000-
SOUTHWEST AND SOUTH CENTRAL SOUTH DAKOTA

CITY           SKY/WX    TMP DP  RH WIND       PRES   REMARKS
RAPID CTY ARPT SUNNY     73  40  30 NE6       29.91F
PIERRE         SUNNY     75  32  20 SE20      29.90F
CUSTER         MOSUNNY   68  28  22 VRB5      29.99S
ELLSWORTH AFB  MOSUNNY   71  41  34 N9        29.93R
PHILIP         SUNNY     76  45  33 SW13      29.88F
PINE RIDGE     SUNNY     74  36  25 W9G21     29.94S
SPEARFISH      FAIR      63  34  34 NW20G28   30.02R
WINNER         FAIR      78  37  22 S16G24    29.92F
$$

SDZ004>011-016>023-039-040-202000-
NORTHEAST SOUTH DAKOTA

CITY           SKY/WX    TMP DP  RH WIND       PRES   REMARKS
ABERDEEN       PTSUNNY   74  28  18 SE13      29.94F
WATERTOWN      SUNNY     72  29  20 E7        29.97F
SISSETON         N/A     70  32  24 S15       29.97
$$

SDZ017-020-022-023-036>040-048>070-202000-
SOUTHEAST SOUTH DAKOTA

CITY           SKY/WX    TMP DP  RH WIND       PRES   REMARKS
SIOUX FALLS    MOSUNNY   76  46  34 SE10      29.95F
HURON          SUNNY     74  27  17 SE9G17    29.93F
CHAMBERLAIN      N/A     77  29  17 SE14      29.92F
MITCHELL       SUNNY     78  35  21 E12G20    29.94F
YANKTON        MOSUNNY   73  48  40 SE8       29.94F
$$

ABBREVIATIONS USED IN REMARKS
   TC - TEMPERATURE IN CELSIUS
  WCI - WIND CHILL INDEX
   HX - HEAT INDEX
  VSB - VISIBILITY




USA.gov is the U.S. government's official web portal to all federal, state and local government web resources and services.